loading
DOY 175 | 2024-06-23T10:39:24Z

OBJECT B, 60013

Orbit data source: Space-Track

OBJECT B, 60013 is a satellite owned by Tsinghua (CN) in SSO that was launched on Thu, 06 Jun 2024 UTC via a Gushenxing 1 launch vehicle from the Jiuquan Satellite Launch Center, China (JSC). Unknown objects in Earth's orbit typically refer to objects detected orbiting the Earth but have not yet been identified or cataloged. These objects could be anything from previously untracked satellites, spent rocket stages, debris from satellite collisions, or even natural meteoroids temporarily captured by Earth's gravity.

Loading next visibility...
Loading greatness...
OBJECT B details
NORAD ID60013
COSPAR ID
2024-110B
Orbit
SSO
Last TLE update6 hours ago
Origin
Flag of CNTsinghua (CN / PRC)
ManufacturerTsinghua
BusNaxing
MotorUnknown
Mass20 kg wet, 20 kg dry
Launch date (UTC)
2024-06-06 (2 weeks ago)
Launch vehicle
Gushenxing 1
Launch site
Jiuquan Satellite Launch Center, China (JSC)
Object typeUnknown
Radar Cross SectionMedium (>0.1 m² and <1 m²)
Predictive object data (real-time)
Latitude-67.73995°
Longitude-59.76408°
Altitude568.203 km
Speed7.578 km/s
Apparent Right ascension11h 54m 19s
Apparent Declination-71° 00' 59"
Sunlit
Object is in full shadow
Predictive observer data (real-time)
Local Sidereal Time21:47:18
Azimuth197.354° SSW
Elevation-54.977°
Doppler factor1
Orbital elements
Apogee552.649 km
Perigee535.35 km
Semi-major axis6,922.137 km
Eccentricity0.0012495
Inclination97.6019°
RAAN261.694°
Arg. of periapsis232.2282°
True anomaly127.89446°
Mean anomaly127.7814°
Mean motion3.76862 °/min
BSTAR0.00042495
Period95.53 mins
Definitive object data (Epoch: 2024-06-23T04:35:08.653Z)
Latitude-0.00005°
Longitude-78.93565°
Altitude555.383 km
Speed7.581 km/s
True Right ascension17h 26m 46s
True Declination0° 00' 00"
Sunlit
Object was in full shadow at TLE epoch
TLE from 6 hours ago
0 OBJECT B
1 60013U 24110B   24175.19107238  .00006222  00000-0  42495-3 0  9997
2 60013  97.6019 261.6940 0012495 232.2282 127.7814 15.06466654  2559
Epoch: 2024-06-23T04:35Z
No data available
Other satellites on launch #110 in the year 2024 (2024-06-06 UTC)

OBJECT B Visibility forecast

Observer location: 39.9160978°, -105.1181434, 0m alt.

OBJECT B is not visible in the next 10 days
Span
Click to sort rows by Start time (UTC) header in descending order
Start Az.
Max El. time (UTC)
Max El. Az.
Max El.
End time (UTC)
End Az.